Date String (YYYY-MM-DD hh:mm:ss) UTC,Instrument flags,Ambient pressure (hPa),Sample flow (lpm),Bypass flow (lpm),Sample temperature (°C),Ambient temperature (°C),ASC tube jacket temperature (°C),LED temperature (°C),Box temperature (°C),Sample RH (%),Span deviation,Mass concentration (μg/m³),Mass concentration (μg/m³),Mass concentration (μg/m³)
DateTimeUTC,F1_M11,P_M11,Q1_M11,Q2_M11,T1_M11,T2_M11,T3_M11,T4_M11,T5_M11,U1_M11,ZSPAN_M11,X0_M11,X2_M11,X1_M11
2023-01-24 20:00:00,,0824.2,5.00,0.00,22.0,20.8,00.0,30.6,23.8,11.4,-002.6,0018.68,0012.89,0012.43
2023-01-24 20:01:00,,0824.2,5.00,0.00,22.0,20.8,00.0,30.7,23.8,11.3,-002.7,0018.23,0012.80,0012.34
2023-01-24 20:02:00,,0824.2,5.01,0.00,22.0,20.8,00.0,30.7,23.8,11.2,-002.6,0017.99,0012.65,0012.20
2023-01-24 20:03:00,,0824.2,5.00,0.00,22.0,20.8,00.0,30.7,23.8,11.2,-002.3,0017.46,0012.54,0012.08
2023-01-24 20:04:00,,0824.3,5.00,0.00,22.0,20.8,00.0,30.7,23.8,11.3,-002.2,0017.08,0012.45,0011.99
2023-01-24 20:05:00,,0824.3,4.99,0.00,22.0,20.8,00.0,30.7,23.8,11.4,-002.2,0016.13,0012.30,0011.87
2023-01-24 20:06:00,,0824.3,5.00,0.00,22.0,20.8,00.0,30.7,23.8,11.4,-002.1,0016.83,0012.23,0011.79
2023-01-24 20:07:00,,0824.2,5.00,0.00,22.0,20.8,00.0,30.7,23.8,11.5,-001.9,0017.22,0012.17,0011.72
2023-01-24 20:08:00,,0824.3,5.00,0.00,22.0,20.7,00.0,30.7,23.8,11.4,-001.9,0017.39,0012.17,0011.69
2023-01-24 20:09:00,,0824.3,5.02,0.00,22.0,20.7,00.0,30.7,23.8,11.4,-002.1,0017.34,0012.16,0011.67
2023-01-24 20:10:00,,0824.2,5.01,0.00,22.0,20.6,00.0,30.7,23.8,11.5,-002.1,0017.38,0012.18,0011.69
2023-01-24 20:11:00,,0824.2,5.00,0.00,22.0,20.6,00.0,30.7,23.8,11.3,-002.0,0017.27,0012.12,0011.66
2023-01-24 20:12:00,,0824.2,4.98,0.00,22.0,20.6,00.0,30.7,23.7,11.2,-001.9,0017.22,0012.12,0011.66
2023-01-24 20:13:00,,0824.1,5.00,0.00,22.0,20.5,00.0,30.7,23.7,11.3,-001.9,0017.91,0012.16,0011.70
2023-01-24 20:14:00,,0824.1,4.99,0.00,22.0,20.5,00.0,30.7,23.7,11.2,-002.2,0018.03,0012.19,0011.75
2023-01-24 20:15:00,,0824.1,5.00,0.00,22.0,20.5,00.0,30.7,23.7,11.3,-002.2,0018.08,0012.25,0011.82
2023-01-24 20:16:00,,0824.1,4.99,0.00,22.0,20.5,00.0,30.7,23.7,11.4,-002.2,0018.17,0012.36,0011.90
2023-01-24 20:17:00,,0824.1,5.00,0.00,22.0,20.5,00.0,30.7,23.7,11.5,-002.2,0017.73,0012.43,0011.97
2023-01-24 20:18:00,,0824.1,5.02,0.00,22.0,20.5,00.0,30.7,23.7,11.4,-002.4,0017.57,0012.50,0012.03
2023-01-24 20:19:00,,0824.1,5.01,0.00,21.9,20.5,00.0,30.7,23.7,11.4,-002.5,0017.70,0012.55,0012.07
2023-01-24 20:20:00,,0824.1,4.99,0.00,21.9,20.5,00.0,30.7,23.7,11.4,-002.5,0017.87,0012.58,0012.10
2023-01-24 20:21:00,,0824.1,4.99,0.00,21.9,20.5,00.0,30.7,23.7,11.6,-002.4,0018.36,0012.62,0012.14
2023-01-24 20:22:00,,0824.1,5.00,0.00,21.9,20.4,00.0,30.7,23.7,11.4,-002.5,0018.54,0012.70,0012.19
2023-01-24 20:23:00,,0824.1,5.01,0.00,21.9,20.4,00.0,30.7,23.6,11.4,-002.6,0018.70,0012.75,0012.24
2023-01-24 20:24:00,,0824.1,5.01,0.00,21.9,20.4,00.0,30.7,23.7,11.6,-002.6,0018.18,0012.79,0012.28
2023-01-24 20:25:00,,0824.1,4.99,0.00,21.9,20.4,00.0,30.7,23.7,11.6,-002.6,0018.12,0012.81,0012.30
2023-01-24 20:26:00,,0824.1,5.00,0.00,21.9,20.4,00.0,30.7,23.6,11.6,-002.6,0018.12,0012.81,0012.30
2023-01-24 20:27:00,,0824.1,5.01,0.00,21.9,20.4,00.0,30.7,23.6,11.6,-002.5,0018.03,0012.83,0012.32
2023-01-24 20:28:00,,0824.1,5.00,0.00,21.9,20.4,00.0,30.7,23.6,11.5,-002.5,0018.09,0012.87,0012.34
2023-01-24 20:29:00,,0824.1,5.00,0.00,21.9,20.4,00.0,30.7,23.6,11.6,-002.4,0017.88,0012.87,0012.34
2023-01-24 20:30:00,,0824.1,5.01,0.00,21.9,20.4,00.0,30.7,23.6,11.4,-002.2,0017.67,0012.83,0012.31
2023-01-24 20:31:00,,0824.0,5.01,0.00,21.9,20.4,00.0,30.7,23.6,11.6,-002.4,0017.63,0012.80,0012.31
2023-01-24 20:32:00,,0824.1,5.00,0.00,21.9,20.4,00.0,30.6,23.6,11.5,-002.4,0017.19,0012.77,0012.30
2023-01-24 20:33:00,,0824.1,4.98,0.00,21.9,20.4,00.0,30.6,23.6,11.5,-002.4,0017.19,0012.76,0012.29
2023-01-24 20:34:00,,0824.1,5.01,0.00,21.9,20.3,00.0,30.6,23.6,11.5,-002.2,0017.25,0012.79,0012.31
2023-01-24 20:35:00,,0824.1,5.00,0.00,21.8,20.3,00.0,30.6,23.6,11.6,-002.2,0017.87,0012.82,0012.31
2023-01-24 20:36:00,,0824.1,5.01,0.00,21.8,20.4,00.0,30.6,23.6,11.6,-002.1,0017.80,0012.86,0012.35
2023-01-24 20:37:00,,0824.1,4.99,0.00,21.9,21.4,00.0,30.6,23.8,11.5,-002.3,0017.85,0012.92,0012.41
2023-01-24 20:38:00,,0824.1,5.00,0.00,22.0,22.3,00.0,30.7,24.0,11.5,-002.6,0018.02,0012.95,0012.44
2023-01-24 20:39:00,,0824.1,4.99,0.00,22.1,22.2,00.0,30.7,24.1,11.6,-002.6,0018.06,0012.98,0012.48
2023-01-24 20:40:00,,0824.1,4.99,0.00,22.1,21.9,00.0,30.7,24.1,11.4,-002.8,0017.89,0013.02,0012.55
2023-01-24 20:41:00,,0824.1,5.00,0.00,22.2,21.6,00.0,30.8,24.0,11.6,-002.8,0018.06,0013.11,0012.63
2023-01-24 20:42:00,,0824.1,5.00,0.00,22.2,21.4,00.0,30.8,24.0,11.4,-002.6,0018.61,0013.17,0012.67
2023-01-24 20:43:00,,0824.1,4.99,0.00,22.2,21.3,00.0,30.8,24.0,11.3,-002.7,0019.02,0013.23,0012.71
2023-01-24 20:44:00,,0824.1,5.00,0.00,22.2,21.2,00.0,30.8,24.0,11.3,-002.6,0019.48,0013.28,0012.77
2023-01-24 20:45:00,,0824.1,5.03,0.00,22.2,21.1,00.0,30.8,24.0,11.3,-002.6,0019.52,0013.35,0012.81
2023-01-24 20:46:00,,0824.1,5.01,0.00,22.2,21.0,00.0,30.8,24.0,11.2,-002.3,0019.13,0013.41,0012.87
2023-01-24 20:47:00,,0824.1,5.00,0.00,22.2,20.9,00.0,30.9,23.9,11.2,-002.4,0019.92,0013.44,0012.88
2023-01-24 20:48:00,,0824.1,5.00,0.00,22.2,20.9,00.0,30.9,23.9,11.2,-002.3,0020.68,0013.45,0012.88
2023-01-24 20:49:00,,0824.1,5.01,0.00,22.2,20.9,00.0,30.9,23.9,11.3,-002.1,0020.58,0013.45,0012.87
2023-01-24 20:50:00,,0824.1,5.01,0.00,22.2,20.9,00.0,30.9,24.0,11.5,-002.1,0021.21,0013.48,0012.89
2023-01-24 20:51:00,,0824.1,5.03,0.00,22.2,20.9,00.0,30.9,24.0,11.4,-001.9,0022.28,0013.45,0012.85
2023-01-24 20:52:00,,0824.1,5.00,0.00,22.2,20.9,00.0,30.9,24.0,11.3,-001.7,0022.30,0013.42,0012.83
2023-01-24 20:53:00,,0824.1,4.98,0.00,22.2,20.9,00.0,30.9,24.0,11.2,-001.8,0021.90,0013.46,0012.84
2023-01-24 20:54:00,,0824.1,5.00,0.00,22.2,20.9,00.0,30.9,24.0,11.2,-001.8,0021.44,0013.47,0012.83
2023-01-24 20:55:00,,0824.0,4.99,0.00,22.2,20.9,00.0,30.9,24.0,11.2,-001.9,0021.28,0013.46,0012.80
2023-01-24 20:56:00,,0824.1,4.99,0.00,22.2,20.9,00.0,30.9,24.0,11.2,-002.0,0021.51,0013.43,0012.76
2023-01-24 20:57:00,,0824.0,5.02,0.00,22.2,20.9,00.0,30.9,24.0,11.2,-002.2,0021.44,0013.35,0012.70
2023-01-24 20:58:00,,0824.1,4.99,0.00,22.2,20.8,00.0,30.9,24.0,11.2,-002.2,0020.83,0013.33,0012.69
2023-01-24 20:59:00,,0824.1,5.00,0.00,22.2,20.8,00.0,30.9,23.9,11.3,-002.3,0020.01,0013.36,0012.72
